Stations météo

réclame
Mon MeteoGroup
Orange, France (7579): Température de l'air & dewpoint: 12.07.2019 20:00:00 - 18.07.2019 20:00:00 (CEST)Orange, France (7579): Température de l'air 5cm: 12.07.2019 20:00:00 - 18.07.2019 20:00:00 (CEST)Orange, France (7579): Vitesse du vent & gusts: 12.07.2019 20:00:00 - 18.07.2019 20:00:00 (CEST)Orange, France (7579): Direction du vent: 12.07.2019 20:00:00 - 18.07.2019 20:00:00 (CEST)Orange, France (7579): reduced air pressure: 12.07.2019 20:00:00 - 18.07.2019 20:00:00 (CEST)Orange, France (7579): visibility: 12.07.2019 20:00:00 - 18.07.2019 20:00:00 (CEST)Orange, France (7579): Quantités de précipitations: 12.07.2019 20:00:00 - 18.07.2019 20:00:00 (CEST)
Date & Time tt [°C] td [°C] tt 5cm [°C] ff [km/h] ff [knt] fx [km/h] fx [knt] dd ppp [hPa] vv [km] rr [mm]
18.07.2019 20:00:00 - - - - - - - - - - -
18.07.2019 19:00:00 32,7 9,5 37,2 17 9 31 17 N 1010,7 47 0,0
18.07.2019 18:00:00 33,2 9,9 40,2 16 9 34 18 N 1010,5 15 0,0
18.07.2019 17:00:00 33,3 10,0 39,1 16 9 39 21 NW 1010,8 27 0,0
18.07.2019 16:00:00 32,7 8,9 40,1 21 12 38 20 NNW 1011,1 27 0,0
18.07.2019 15:00:00 33,0 7,8 37,8 24 13 40 22 N 1011,2 28 0,0
18.07.2019 14:00:00 32,4 8,6 39,2 27 15 43 23 N 1011,6 30 0,0
18.07.2019 13:00:00 31,6 8,6 36,2 20 11 36 19 NNW 1012,0 32 0,0
18.07.2019 12:00:00 30,9 9,7 34,7 22 12 36 19 NW 1012,4 32 0,0
18.07.2019 11:00:00 29,2 9,3 31,9 27 14 40 22 NNW 1012,4 35 0,0
18.07.2019 10:00:00 27,4 9,7 29,3 19 10 29 16 NNW 1012,7 20 0,0
18.07.2019 09:00:00 25,7 10,3 23,3 13 7 26 14 NW 1012,6 39 0,0
18.07.2019 08:00:00 23,7 9,3 19,2 17 9 27 15 NNW 1012,3 52 0,0
18.07.2019 07:00:00 21,0 9,6 13,6 8 5 13 7 WNW 1011,8 50 0,0
18.07.2019 06:00:00 18,7 9,2 12,6 6 3 9 5 WSW 1011,6 49 0,0
18.07.2019 05:00:00 19,3 9,8 14,2 5 3 14 8 NNE 1011,2 49 0,0
18.07.2019 04:00:00 20,6 10,1 14,3 3 1 11 6 SW 1011,2 49 0,0
18.07.2019 03:00:00 21,1 10,6 14,1 6 4 13 7 NW 1011,2 43 0,0
18.07.2019 02:00:00 19,4 13,3 15,0 5 3 10 5 N 1011,2 34 0,0
18.07.2019 01:00:00 20,7 13,9 15,3 5 3 7 4 NNW 1011,4 33 0,0
18.07.2019 00:00:00 22,9 13,4 17,4 2 1 8 5 SE 1011,5 41 0,0
17.07.2019 23:00:00 22,1 12,6 17,7 7 4 9 5 E 1011,4 44 0,0
17.07.2019 22:00:00 26,6 11,9 22,5 6 3 14 8 W 1010,8 45 0,0
17.07.2019 21:00:00 28,3 11,4 26,6 10 6 24 13 SW 1010,1 48 0,0
17.07.2019 20:00:00 30,9 11,3 32,5 12 7 23 12 SW 1010,0 39 0,0
17.07.2019 19:00:00 33,3 10,0 39,2 12 6 22 12 N 1009,6 34 0,0
17.07.2019 18:00:00 34,0 9,9 39,8 7 4 19 10 W 1010,0 49 0,0
17.07.2019 17:00:00 33,3 9,4 39,0 18 10 27 15 NNW 1010,5 47 0,0
17.07.2019 16:00:00 34,0 9,3 40,4 14 8 34 19 N 1010,8 51 0,0
17.07.2019 15:00:00 33,2 9,3 40,9 15 8 34 19 NNW 1011,3 37 0,0
17.07.2019 14:00:00 32,3 9,2 40,0 23 12 34 18 NNW 1011,9 20 0,0
17.07.2019 13:00:00 31,7 9,3 38,4 17 9 32 17 NNW 1012,5 45 0,0
17.07.2019 12:00:00 30,5 9,9 32,6 16 9 28 15 NNW 1012,7 44 0,0
17.07.2019 11:00:00 29,0 9,7 32,9 13 7 27 15 N 1013,1 20 0,0
17.07.2019 10:00:00 27,2 10,0 29,7 16 9 31 17 NNW 1013,7 19 0,0
17.07.2019 09:00:00 24,4 11,0 24,0 19 10 28 15 N 1013,7 34 0,0
17.07.2019 08:00:00 21,1 12,5 16,1 8 4 14 8 NNE 1013,6 37 0,0
17.07.2019 07:00:00 17,5 12,4 13,6 8 4 19 10 NNE 1013,6 43 0,0
17.07.2019 06:00:00 18,2 13,1 11,2 14 8 20 11 N 1013,6 40 0,0
17.07.2019 05:00:00 16,1 12,5 11,3 5 3 8 4 N 1013,6 38 0,0
17.07.2019 04:00:00 16,5 13,0 11,8 2 1 9 5 N 1013,8 38 0,0
17.07.2019 03:00:00 17,4 13,1 12,5 7 4 10 6 NE 1014,1 40 0,0
17.07.2019 02:00:00 18,7 14,4 13,2 4 2 9 5 E 1014,4 45 0,0
17.07.2019 01:00:00 20,2 14,8 16,1 8 4 14 7 SE 1014,6 46 0,0
17.07.2019 00:00:00 20,8 13,5 17,7 10 5 15 8 SE 1014,5 48 0,0
16.07.2019 23:00:00 23,0 12,6 19,3 5 3 27 15 SE 1014,2 56 0,0
16.07.2019 22:00:00 25,5 13,4 23,9 16 9 26 14 SW 1013,7 37 0,0
16.07.2019 21:00:00 26,9 14,3 26,1 14 8 26 14 SW 1013,5 51 0,0
16.07.2019 20:00:00 31,0 10,9 33,9 10 5 20 11 NNW 1013,0 44 0,0
16.07.2019 19:00:00 32,1 9,6 32,2 11 6 27 15 NNW 1012,7 50 0,0
16.07.2019 18:00:00 32,5 8,0 40,0 14 7 25 14 N 1012,9 60 0,0
16.07.2019 17:00:00 32,3 7,2 38,9 11 6 27 15 NW 1013,2 32 0,0
16.07.2019 16:00:00 31,8 11,6 39,6 16 8 26 14 W 1013,4 30 0,0
16.07.2019 15:00:00 31,3 11,7 41,1 3 2 18 10 SSW 1013,6 33 0,0
16.07.2019 14:00:00 30,1 11,6 39,9 3 2 18 10 NE 1014,0 36 0,0
16.07.2019 13:00:00 29,5 11,5 38,1 7 4 24 13 NNE 1014,2 60 0,0
16.07.2019 12:00:00 28,7 13,0 34,3 16 8 32 17 N 1014,6 38 0,0
16.07.2019 11:00:00 26,6 13,3 31,0 23 12 41 22 N 1014,9 31 0,0
16.07.2019 10:00:00 24,9 12,8 26,9 26 14 41 22 N 1014,9 25 0,0
16.07.2019 09:00:00 23,2 12,2 23,5 26 14 41 22 NNW 1015,0 10 0,0
16.07.2019 08:00:00 21,5 11,2 19,6 20 11 36 19 N 1014,8 9 0,0
16.07.2019 07:00:00 20,0 10,7 18,0 22 12 37 20 N 1014,4 9 0,0
16.07.2019 06:00:00 19,5 10,5 18,0 16 8 31 17 NNW 1014,0 60 0,0
16.07.2019 05:00:00 20,2 10,9 18,4 16 9 32 18 N 1013,7 60 0,0
16.07.2019 04:00:00 20,7 11,1 18,8 15 8 35 19 N 1013,7 60 0,0
16.07.2019 03:00:00 21,4 11,1 19,9 22 12 36 19 N 1013,6 60 0,0
16.07.2019 02:00:00 22,1 11,2 20,9 23 13 41 22 N 1013,6 60 0,0
16.07.2019 01:00:00 22,9 11,0 21,8 29 16 48 26 N 1013,2 60 0,0
16.07.2019 00:00:00 23,6 10,6 22,2 25 13 44 24 N 1013,2 60 0,0
15.07.2019 23:00:00 24,2 10,8 22,9 27 15 46 25 N 1012,7 60 0,0
15.07.2019 22:00:00 24,9 10,7 23,6 27 15 51 28 N 1012,1 60 0,0
15.07.2019 21:00:00 25,7 11,1 25,1 30 16 66 36 N 1011,3 39 0,0
15.07.2019 20:00:00 26,6 11,5 28,4 39 21 69 37 N 1010,7 8 0,0
15.07.2019 19:00:00 27,2 11,6 30,2 47 25 75 41 N 1010,2 7 0,0
15.07.2019 18:00:00 27,2 11,6 31,9 47 25 74 40 N 1009,8 6 0,0
15.07.2019 17:00:00 27,4 11,8 29,3 49 26 79 42 N 1009,8 5 0,0
15.07.2019 16:00:00 27,2 11,6 28,9 48 26 80 43 N 1009,5 6 0,0
15.07.2019 15:00:00 26,7 11,2 31,1 50 27 86 47 N 1009,1 7 0,0
15.07.2019 14:00:00 25,4 11,6 29,7 55 30 91 49 N 1008,9 9 0,0
15.07.2019 13:00:00 24,0 11,7 28,5 52 28 87 47 N 1008,9 10 0,0
15.07.2019 12:00:00 23,3 11,4 23,8 50 27 79 42 NNW 1008,9 10 0,0
15.07.2019 11:00:00 22,2 11,3 24,4 46 25 79 43 N 1009,8 8 0,0
15.07.2019 10:00:00 20,6 11,5 21,6 56 30 80 43 N 1010,1 8 0,0
15.07.2019 09:00:00 20,0 11,7 20,1 46 25 76 41 N 1010,2 9 0,0
15.07.2019 08:00:00 19,1 11,4 18,3 36 19 67 36 N 1010,1 10 0,0
15.07.2019 07:00:00 18,6 11,2 17,8 37 20 61 33 N 1009,8 10 0,0
15.07.2019 06:00:00 18,8 10,6 17,8 37 20 59 32 N 1009,8 60 0,0
15.07.2019 05:00:00 19,4 10,4 18,5 35 19 64 34 N 1009,9 60 0,0
15.07.2019 04:00:00 20,0 10,1 19,1 36 20 72 39 N 1009,7 60 0,0
15.07.2019 03:00:00 20,6 10,4 19,9 43 23 66 36 N 1009,8 60 0,0
15.07.2019 02:00:00 21,3 11,0 20,5 35 19 58 31 N 1010,0 52 0,0
15.07.2019 01:00:00 22,4 10,2 21,3 32 17 60 32 NNW 1010,1 59 0,0
15.07.2019 00:00:00 23,4 11,1 22,6 39 21 67 36 NNW 1009,6 55 0,0
14.07.2019 23:00:00 24,8 9,9 23,7 32 17 54 29 NNW 1009,3 60 0,0
14.07.2019 22:00:00 25,6 8,6 24,4 31 17 63 34 N 1008,6 60 0,0
14.07.2019 21:00:00 26,7 8,2 26,0 32 18 63 34 N 1008,1 42 0,0
14.07.2019 20:00:00 28,1 8,4 29,8 39 21 63 34 N 1007,9 15 0,0
14.07.2019 19:00:00 29,2 8,3 32,9 40 21 58 32 N 1007,7 12 0,0
14.07.2019 18:00:00 30,5 9,4 36,0 32 17 51 28 N 1007,7 15 0,0
14.07.2019 17:00:00 30,8 10,2 37,7 31 17 48 26 N 1007,8 19 0,0
14.07.2019 16:00:00 31,1 11,0 37,4 31 17 47 25 N 1008,1 22 0,0
14.07.2019 15:00:00 31,3 11,7 39,2 25 14 42 23 N 1008,5 24 0,0
14.07.2019 14:00:00 30,4 10,9 38,0 28 15 42 23 N 1009,0 20 0,0
14.07.2019 13:00:00 29,3 10,9 35,4 29 15 48 26 N 1009,5 20 0,0
14.07.2019 12:00:00 27,7 11,3 32,0 32 17 50 27 N 1010,0 18 0,0
14.07.2019 11:00:00 26,1 10,3 29,9 34 19 56 31 N 1010,6 15 0,0
14.07.2019 10:00:00 24,6 10,8 25,8 33 18 58 31 N 1010,8 12 0,0
14.07.2019 09:00:00 22,5 10,9 22,5 34 18 59 32 N 1010,9 10 0,0
14.07.2019 08:00:00 20,9 11,0 19,7 32 17 54 29 N 1010,8 11 0,0
14.07.2019 07:00:00 20,1 10,5 18,5 26 14 44 24 N 1011,1 12 0,0
14.07.2019 06:00:00 20,1 10,2 19,1 30 16 46 25 N 1011,2 55 0,0
14.07.2019 05:00:00 20,8 10,0 19,9 33 18 58 31 NNW 1011,2 52 0,0
14.07.2019 04:00:00 21,5 9,7 20,5 31 17 48 26 N 1011,9 58 0,0
14.07.2019 03:00:00 22,1 9,6 20,8 29 16 48 26 N 1011,8 59 0,0
14.07.2019 02:00:00 22,4 9,5 21,1 24 13 42 23 N 1012,2 59 0,0
14.07.2019 01:00:00 22,7 9,1 21,3 21 11 53 29 NNW 1012,4 60 0,0
14.07.2019 00:00:00 24,0 8,8 22,9 35 19 55 30 NNW 1012,0 60 0,0
13.07.2019 23:00:00 24,7 8,2 23,4 29 16 53 29 N 1012,5 6 0,0
13.07.2019 22:00:00 25,6 8,1 24,4 31 17 53 29 NNW 1012,5 60 0,0
13.07.2019 21:00:00 26,7 7,7 26,1 36 20 66 35 NNW 1012,2 28 0,0
13.07.2019 20:00:00 28,0 7,8 29,6 36 19 63 34 N 1011,9 15 0,0
13.07.2019 19:00:00 28,9 7,5 32,4 40 22 62 33 NNW 1011,9 12 0,0
13.07.2019 18:00:00 29,9 7,1 34,5 41 22 69 37 N 1012,2 10 0,0
13.07.2019 17:00:00 30,2 6,1 36,4 42 23 69 37 N 1012,4 19 0,0
13.07.2019 16:00:00 30,6 7,1 35,0 38 21 74 40 N 1012,8 58 0,0
13.07.2019 15:00:00 30,2 7,4 36,3 40 22 71 38 N 1013,0 12 0,0
13.07.2019 14:00:00 29,4 10,0 35,0 44 24 71 38 N 1013,7 14 0,0
13.07.2019 13:00:00 29,3 10,9 33,7 39 21 71 38 N 1013,9 16 0,0
13.07.2019 12:00:00 28,7 10,8 32,4 40 21 69 37 N 1014,0 18 0,0
13.07.2019 11:00:00 27,5 11,9 30,4 45 25 67 36 N 1013,9 16 0,0
13.07.2019 10:00:00 26,1 13,6 28,1 41 22 66 35 N 1014,0 8 0,0
13.07.2019 09:00:00 24,8 13,4 25,4 40 22 63 34 N 1014,1 10 0,0
13.07.2019 08:00:00 24,0 14,1 22,2 31 17 58 31 N 1014,1 12 0,0
13.07.2019 07:00:00 22,6 14,2 19,9 16 9 30 16 N 1014,2 13 0,0
13.07.2019 06:00:00 21,5 13,7 19,6 14 7 19 11 N 1013,8 54 0,0
13.07.2019 05:00:00 22,5 13,6 20,5 15 8 26 14 N 1013,7 55 0,0
13.07.2019 04:00:00 24,1 13,3 22,9 21 11 32 17 NW 1013,9 56 0,0
13.07.2019 03:00:00 24,7 12,9 23,3 23 12 37 20 NNW 1013,7 57 0,0
13.07.2019 02:00:00 25,0 12,9 23,8 23 13 39 21 NNW 1013,4 60 0,0
13.07.2019 01:00:00 25,7 12,5 24,6 24 13 38 21 N 1013,6 60 0,0
13.07.2019 00:00:00 26,5 12,2 25,2 23 12 36 20 N 1013,4 60 0,0
12.07.2019 23:00:00 27,3 12,1 25,8 19 10 29 16 NNW 1012,9 60 0,0
12.07.2019 22:00:00 28,2 12,1 26,6 16 8 27 14 NNW 1012,4 60 0,0
12.07.2019 21:00:00 29,7 12,6 28,4 15 8 35 19 NNW 1011,9 60 0,0
12.07.2019 20:00:00 32,1 12,8 34,2 22 12 35 19 N 1011,5 34 0,0

tt = Température de l'air
td = dewpoint
tt 5cm = Température de l'air 5cm
ff = Vitesse du vent
fx = gusts
dd = Direction du vent
ppp = reduced air pressure
vv = visibility
rr = Quantités de précipitations

stations d'obs. à proximité